Погода в Месягутове

Россия / Республика Башкортостан     55°32′02″N   58°14′40″E
темп.,
°C
ветер,
м/с
пор.,
м/с
влажн.,
%
обл.,
%
осадки,
мм/ч
давл.,
гПа
погр.,
м
16 апреля, пт
пт1623:00+11юз336969 0.0 102121
02:00+9юз337556 0.0 102033
05:00+7з1178100 0.0 102110
08:00+9сз117675 0.0 102229
11:00+11св337285 0.0 1022471
14:00+13св656667 0.0 1022895
17:00+10св676973 0.0 1024678
20:00+7всв697664 0.0 1025390
17 апреля, сб
сб1723:00+5св487954 0.0 1025281
02:00+3ссв46855 0.0 1025148
05:00+2св34865 0.0 102575
08:00+4ссв237810 0.0 1025148
11:00+8ссв44617 0.0 1025658
14:00+11ссв33455 0.0 10241149
17:00+11ссз44375 0.0 10231169
20:00+7ссв34511 0.0 102360
18 апреля, вс
вс1823:00+5ссз22650 0.0 102428
02:00+3зсз21685 0.0 102311
05:00+2з22745 0.0 102314
08:00+4сз38725 0.0 1023324
11:00+6с676281 0.0 10241294
14:00+5с566095 0.0 10261008
17:00+6всв565052 0.1 10271415
20:00+3всв7104572 0.0 1028574
19 апреля, пн
пн1923:000в6115056 0.0 1031517
02:00−1в510515 0.0 1033604
05:00−2в6105118 0.0 1035690
08:00−1в68420 0.0 1036824
11:00+2в67290 0.0 10361506
14:00+4в66250 0.0 10361812
17:00+4в56250 0.0 10351825
20:00+1в48390 0.0 1037202
20 апреля, вт
вт2023:00−2вюв49480 0.0 1038284
02:00−2вюв27460 0.0 1038221
05:00−3в23450 0.0 103991
08:00−1в23365 0.0 1039315
11:00+3в22265 0.0 1038841
14:00+6ссв11254 0.0 10361041
17:00+7ссз22252 0.0 1034980
20:00+4св11365 0.0 103410